DECAYED

STARLINK-3855, 52474 (Decayed)

Orbit data source: Space-Track

STARLINK-3855, 52474 was a payload satellite owned by SpaceX/Seattle (US) in LEO that was launched on Fri, 06 May 2022 UTC via an FALCON 9 launch vehicle from the Air Force Eastern Test Range (AFETR). Payload-class satellites include a variety of spacecraft equipped with specific instruments for various scientific and technological missions. These include communications satellites like Starlink; space stations such as the ISS; scientific satellites like the Hubble; Earth observation satellites from companies like Planet Labs, Umbra, and HawkEye 360; GPS; miniature CubeSats for education and research; and military/defense satellites.

Not visible in the next 10 days
Identifier
52474, 2022-049Z
Orbit
Decayed
Country
Flag of USUS
Related business
Manufacturer
SpaceX/Seattle
Mission
Decayed Commercial Communications
Bus & Motor
STARLINK, Unknown motor
Mass
297 kg wet, ~220 kg dry
Launch date (UTC)
2022-05-06 (4 years ago)
Launch vehicle
FALCON 9
Launch site
Air Force Eastern Test Range (AFETR)
Object type
Payload
Rocket body
Debris
Shape & HBR
Box + 1 Pan, 10.1 m
Radar Cross Section
13.562 m², Large (>1 m²)

Expand to show TLE details & history
Last TLE update: 4 months ago

TLE from 4 months ago
0 STARLINK-3855
1 52474U 22049Z   26084.17792690  .10221595  12469-4  28481-3 0  9997
2 52474  53.2021 315.3988 0005804 256.5610 103.4794 16.45177351215068
Epoch: 2026-03-25T04:16Z
TLE epoch observation values (Epoch: 2026-03-25T04:16:12.884Z)
Latitude
-0.00002°
Longitude
68.70014°
Altitude
153.9 km
Speed
7.815 km/s
True Right ascension
21h 01m 35s
True Declination
0° 00' 00"
Sunlit
Object was in daylight at epoch
Visualization orbit readout
Latitude
Unknown
Longitude
Unknown
Altitude
Unknown
Speed
Unknown
Apparent Right ascension
Unknown
Apparent Declination
Unknown
Sunlit
N/A
Visualization observer readout
Local Sidereal Time
21:11:48
Azimuth
Unknown
Elevation
Unknown
Doppler factor
Unknown
Orbital elements
Apogee altitude
156.118 km
Perigee altitude
148.537 km
Semi-major axis
6,530.465 km
Eccentricity
0.00058
Inclination
53.2021°
RAAN
315.3988°
Arg. of periapsis
256.561°
True anomaly
103.54407°
Mean anomaly
103.4794°
Eccentric anomaly
103.51173°
Mean motion
4.1127 °/min
Orbital period
87.53 mins
BSTAR
0.00028481
Loading maneuver chart data...
Computing Atmospheric mass density...
Loading historical data...
Loading historical data...
Loading historical data...
Loading historical data...
Loading historical data...
Loading historical data...
Loading historical data...

Documentation

Showing up to 5 results
|